Location: Arroyo Retuerta
(40.5469°N, 4.3534°W)
Time: 04:37:52
(UTC+00:00)

N. Korean satellite - Pass Details

Date: 10 August 2021
Orbit: 449 x 498 km, 97.3° (Epoch: 25 September)

Event Time Altitude Azimuth Distance (km) Brightness Sun altitude
Rises 04:28:17 0° 37° (NE) 2,510 11.6 -10.2°
Reaches altitude 10° 04:32:01 10° 79° (ENE) 1,611 10.5 -9.6°
Maximum altitude 04:32:44 11° 91° (E) 1,576 10.2 -9.5°
Drops below altitude 10° 04:33:26 10° 103° (ESE) 1,602 9.9 -9.4°
Sets 04:37:06 0° 145° (SE) 2,455 10.2 -8.8°
